STARLINK-34017, 64339

Orbit data source: Space-Track

STARLINK-34017, 64339 is a payload satellite owned by SpaceX/Seattle (US) in LEO that was launched on Tue, 10 Jun 2025 UTC via an FALCON 9 launch vehicle from the Air Force Eastern Test Range (AFETR). Payload-class satellites include a variety of spacecraft equipped with specific instruments for various scientific and technological missions. These include communications satellites like Starlink; space stations such as the ISS; scientific satellites like the Hubble; Earth observation satellites from companies like Planet Labs, Umbra, and HawkEye 360; GPS; miniature CubeSats for education and research; and military/defense satellites.

Loading next visibility...
Identifier
64339, 2025-124Y
Orbit
LEO
Country
Flag of USUS
Related business
Manufacturer
SpaceX/Seattle
Mission
Operational Commercial Communications
Bus & Motor
STARLINK V2MO, Unknown motor
Mass
575 kg wet, ~530 kg dry
Launch date (UTC)
2025-06-10 (9 months ago)
Launch vehicle
FALCON 9
Launch site
Air Force Eastern Test Range (AFETR)
Object type
Payload
Rocket body
Debris
Shape & HBR
Box + 2 Pan, 17.7 m
Radar Cross Section
36.964 m², Large (>1 m²)

Expand to show TLE details & history
Last TLE update: 11 hours ago

TLE from 11 hours ago
0 STARLINK-34017
1 64339U 25124Y   26074.46383114  .00016185  00000-0  59620-3 0  9994
2 64339  43.0036  89.0848 0001003 281.4077  78.6662 15.27589725 42667
Epoch: 2026-03-15T11:07Z
TLE epoch observation values (Epoch: 2026-03-15T11:07:55.010Z)
Latitude
-0.00002°
Longitude
109.03528°
Altitude
482.661 km
Speed
7.626 km/s
True Right ascension
05h 56m 20s
True Declination
0° 00' 00"
Sunlit
Object was in daylight at epoch
Visualization orbit readout
Latitude
Unknown
Longitude
Unknown
Altitude
Unknown
Speed
Unknown
Apparent Right ascension
Unknown
Apparent Declination
Unknown
Sunlit
N/A
Visualization observer readout
Local Sidereal Time
02:44:44
Azimuth
Unknown
Elevation
Unknown
Doppler factor
Unknown
Orbital elements
Apogee altitude
485.653 km
Perigee altitude
484.276 km
Semi-major axis
6,863.102 km
Eccentricity
0.0001
Inclination
43.0036°
RAAN
89.0848°
Arg. of periapsis
281.4077°
True anomaly
78.67747°
Mean anomaly
78.6662°
Eccentric anomaly
78.67183°
Mean motion
3.81735 °/min
Orbital period
94.31 mins
BSTAR
0.0005962
Loading maneuver chart data...
Computing Atmospheric mass density...
Loading historical data...
Loading historical data...
Loading historical data...
Loading historical data...
Loading historical data...
Loading historical data...
Loading historical data...

Documentation

Showing up to 5 results
|